Tracking 19212 objects as of 17-Jul-2018
HD Live streaming from Space Station
objects crossing your sky now

FENGYUN 1C DEB

Track FENGYUN 1C DEB now!
10-day predictions


NORAD ID: 31551
Int'l Code: 1999-025BYS
Perigee: 798.2 km
Apogee: 925.7 km
Inclination: 98.8 °
Period: 102.0 minutes
Semi major axis: 7232 km
RCS: 0.0179 m2 (small)
Launch date: May 10, 1999
Source: People's Republic of China (PRC)
Launch site: Taiyaun Space Center, China (TSC)

Note: This is SATELLITE DEBRIS
aabbcc
Your satellite tracking list
Your tracking list is empty




NASA's NSSDC Master Catalog

Two Line Element Set (TLE):
1 31551U 99025BYS 18196.92637911 +.00001777 +00000-0 +97067-3 0  9997
2 31551 098.8457 102.3805 0088139 042.2698 021.0716 14.11347844316102
Source of the keplerian elements: AFSPC